Tracking 23764 objects as of 18-Oct-2021
HD Live streaming from Space Station
objects crossing your sky now

SL-8 R/B

Track SL-8 R/B now!
10-day predictions


NORAD ID: 8295
Int'l Code: 1975-086J
Perigee: 1,489.8 km
Apogee: 1,691.5 km
Inclination: 74.0 °
Period: 117.8 minutes
Semi major axis: 7961 km
RCS: 6.5123 m2 (large)
Launch date: September 17, 1975
Source: Commonwealth of Independent States (former USSR) (CIS)
Launch site: PLESETSK MISSILE AND SPACE COMPLEX (PKMTR)

Note: This is a ROCKET BODY
aabbcc
Your satellite tracking list
Your tracking list is empty




NASA's NSSDC Master Catalog

Two Line Element Set (TLE):
1 08295U 75086J   21290.90476918 -.00000112  00000-0 -89915-3 0  9999
2 08295  74.0081  96.3148 0126715  53.8321  96.8925 12.22074143 56243
Source of the keplerian elements: AFSPC